Tracking 35331 objects as of 14-Sep-2026
HD Live streaming from Space Station
objects crossing your sky now

STARLINK-3888

Track STARLINK-3888 now!
10-day predictions
STARLINK-3888 is classified as:


NORAD ID: 52454
Int'l Code: 2022-049D
Launch date: May 6, 2022
Source: United States (US)
Launch site: AIR FORCE EASTERN TEST RANGE (AFETR)
Your satellite tracking list
Your tracking list is empty




NASA's NSSDC Master Catalog

Two Line Element Set (TLE):
1 52454U 22049D   26257.25221580  .00002661  00000-0  87186-4 0  9993
2 52454  53.1600 298.7661 0001102  68.9125 291.1996 15.35390481240621
Source of the keplerian elements: AFSPC